Regional Weather Roundup
Issued by NWS

Home | Current Version | Previous Version | Graphics & Text | Print | Product List | Glossary On
Versions: 1 2 3 4 5 6 7 8 9 10 11 12 13 14 15 16 17 18 19 20 21 22 23 24 25 26 27 28 29 30 31 32 33 34 35 36 37 38 39 40 41 42 43 44 45 46 47 48 49 50
478
ASUS45 KBOU 221807
RWRCO

WEATHER ROUNDUP FOR COLORADO
NATIONAL WEATHER SERVICE DENVER/BOULDER CO
1200 PM MDT FRI SEP 22 2017

NOTE: "FAIR" INDICATES FEW OR NO CLOUDS BELOW 12000 FEET WITH NO
SIGNIFICANT WEATHER AND/OR OBSTRUCTIONS TO VISIBILITY.

COZ001>005-013-030-031-221900-
...NORTHWEST COLORADO...

CITY           SKY/WX    TMP DP  RH WIND       PRES   REMARKS
CRAIG          LGT RAIN  59  38  45 NW12      29.88S
HAYDEN         PTSUNNY   63  34  33 W14       29.88F
MEEKER         CLOUDY    61  36  39 NW16G25   29.86S
RABBIT EARS PA LGT RAIN  41  36  81 SW8G22    30.11R
STEAMBOAT SPGS CLOUDY    56  40  55 SE9G17    29.92F
WALDEN         FAIR      61  30  31 SW17G26   29.97F
$$

COZ006>008-011-221900-
...WEST CENTRAL VALLEYS...

CITY           SKY/WX    TMP DP  RH WIND       PRES   REMARKS
GRAND JUNCTION FAIR      75  29  18 SW25G32   29.77F
MONTROSE       FAIR      71  33  24 S12G21    29.86F
EAGLE          FAIR      62  41  46 W20G25    29.92S
RIFLE          FAIR      71  36  27 S17G35    29.83S
DELTA          NOT AVBL
NUCLA          FAIR      70  28  21 S23G31    29.91F
$$

COZ017>023-064>068-221900-
...SOUTHWEST COLORADO...

CITY           SKY/WX    TMP DP  RH WIND       PRES   REMARKS
DURANGO        CLOUDY    60  46  59 NE8       30.01F
CORTEZ         CLOUDY    67  33  28 S14G23    29.93S
PAGOSA SPRINGS RAIN      61  37  41 SW16G22   30.07R
TELLURIDE      FAIR      51  36  55 S12G35    30.09S
WOLF CREEK PAS CLOUDY    36  36 100 S26G35    30.27F
$$

COZ009-010-012-014-032>034-037-058>063-221900-
...CENTRAL COLORADO...

CITY           SKY/WX    TMP DP  RH WIND       PRES   REMARKS
ASPEN          PTSUNNY   57  44  62 SE9       29.93F
BUENA VISTA    PTSUNNY   66  31  27 S13G21    29.98F
COPPER MTN     CLOUDY    50  23  34 S24G40    30.19S
BERTHOUD PASS  FAIR      45  36  70 SW16G38   30.21F
COTTONWOOD PAS CLOUDY    59  36  41 SW6       30.10F
GUNNISON       FAIR      64  35  34 S20G30    29.97R
KREMMLING      FAIR      68  32  26 W17G29    29.94S
LEADVILLE      CLOUDY    54  26  34 S16G29    30.06F
MONARCH PASS   CLOUDY    43  30  61 SW23      30.31F
SALIDA         CLOUDY    68  32  26 SW5G16    30.01F
SUNLIGHT       PTSUNNY   43  39  87 SW14G22   30.12S
WILKERSON PASS FAIR      54  27  35 SW16G25   30.18S
$$

COZ069>075-221900-
...SAN LUIS VALLEY/SANGRE DE CRISTO MOUNTAINS...

CITY           SKY/WX    TMP DP  RH WIND       PRES   REMARKS
ALAMOSA        FAIR      71  33  24 S23G37    30.01F
DEL NORTE      FAIR      68  32  26 SW16G31   30.02F
LA VETA PASS   FAIR      61  30  31 S43G55    30.24S
SAGUACHE       FAIR      70  32  24 SW20G35   30.00F
$$

COZ035-036-038>040-221900-
...NORTHERN COLORADO FRONT RANGE...

CITY           SKY/WX    TMP DP  RH WIND       PRES   REMARKS
DENVER INTL AP FAIR      77  37  23 N9        29.80F
DMNS CITY PARK   N/A     69  38  31 NE18      29.80S
AURORA         MOSUNNY   79  37  21 NW12      29.80F
FRONT RANGE AP PTSUNNY   82  36  18 S15G25    29.81F
ERIE MUNI ARPT FAIR      67  37  33 N7        29.86F
BOULDER MUN AP FAIR      66  37  34 NE7       29.81F
CENTENNIAL     FAIR      79  33  19 NW13      29.81F
BROOMFIELD     MOSUNNY   68  37  32 N8        29.83F
FORT COLLINS   FAIR      67  41  38 VRB3      29.82F
LONGMONT       FAIR      71  41  33 NE6       29.82F
$$

COZ041-046-047-076>085-087-088-221900-
...PIKES PEAK/PALMER DIVIDE AND SOUTHERN FOOTHILLS...

CITY           SKY/WX    TMP DP  RH WIND       PRES   REMARKS
COLO. SPRINGS  PTSUNNY   77  33  20 S22G32    29.90F
A. F. ACADEMY  FAIR      77  31  18 S24G35    29.89F
SCHRIEVER AFB  FAIR      73  31  20 S8G18     29.91F
CHEYENNE MTN   FAIR      71  32  23 S23G36    29.87S
ELLICOTT         N/A    N/A N/A N/A S15G26    29.89F
FALCON         FAIR      73  30  19 S22G28    29.95F
FORT CARSON    NOT AVBL
LIMON            N/A    N/A N/A N/A MISG      29.86F
MONUMENT HILL  FAIR      70  32  24 S21G33    29.93F
CANON CITY     MOSUNNY   82  36  18 SW15G23   29.82F
WALSENBURG     FAIR      79  28  15 SW24G32   29.90F
TRINIDAD       FAIR      77  36  22 S18G28    29.91F
$$

COZ042>045-048>051-090-091-221900-
...NORTHEAST COLORADO...

CITY           SKY/WX    TMP DP  RH WIND       PRES   REMARKS
GREELEY ARPT   FAIR      69  41  36 VRB3      29.81F
AKRON          FAIR      75  37  25 SE12      29.82F
BURLINGTON     FAIR      89  39  17 SW23G33   29.82F
WRAY           FAIR      81  36  19 CALM      29.78F
YUMA           FAIR      70  27  19 NE5       29.80F
STERLING       FAIR      64  45  48 E7        29.80F
HOLYOKE        FAIR      73  37  27 CALM      29.81S
FORT MORGAN    FAIR      69  37  30 E13       29.81F
$$

COZ086-089-092>099-221900-
...SOUTHEAST COLORADO...

CITY           SKY/WX    TMP DP  RH WIND       PRES   REMARKS
PUEBLO         FAIR      84  34  16 SW13G22   29.80F
LA JUNTA       FAIR      87  38  17 SW14G24   29.82F
LAMAR          FAIR      89  40  17 S26G35    29.79F
SPRINGFIELD      N/A     88  45  22 S21G32    29.89F
$$




USA.gov is the U.S. government's official web portal to all federal, state and local government web resources and services.